Time,TemperatureF,DewpointF,PressureIn,WindDirection,WindDirectionDegrees,WindSpeedMPH,WindSpeedGustMPH,Humidity,HourlyPrecipIn,Conditions,Clouds,dailyrainin,SolarRadiationWatts/m^2,SoftwareType,DateUTC
2013-02-02 00:01:00,44.0,28.0,-100.00,SE,128,2.0,4.0,53,0.00,,,0.00,0.000000,,2013-02-02 08:01:00,
2013-02-02 00:32:00,45.0,27.0,-100.00,SE,125,1.0,4.0,50,0.00,,,0.00,0.000000,,2013-02-02 08:32:00,
2013-02-02 00:42:00,45.0,27.0,-100.00,SE,125,1.0,4.0,50,0.00,,,0.00,0.000000,,2013-02-02 08:42:00,
2013-02-02 00:53:00,45.0,27.0,-100.00,SE,125,1.0,4.0,50,0.00,,,0.00,0.000000,,2013-02-02 08:53:00,
2013-02-02 01:01:00,45.0,27.0,-100.00,SE,125,1.0,4.0,50,0.00,,,0.00,0.000000,,2013-02-02 09:01:00,
2013-02-02 01:32:00,45.0,27.0,-100.00,ESE,107,2.0,3.0,50,0.00,,,0.00,0.000000,,2013-02-02 09:32:00,
2013-02-02 01:42:00,45.0,27.0,-100.00,ESE,107,2.0,3.0,50,0.00,,,0.00,0.000000,,2013-02-02 09:42:00,
2013-02-02 01:52:00,45.0,27.0,-100.00,ESE,107,2.0,3.0,50,0.00,,,0.00,0.000000,,2013-02-02 09:52:00,
2013-02-02 02:01:00,45.0,27.0,-100.00,ESE,107,2.0,3.0,50,0.00,,,0.00,0.000000,,2013-02-02 10:01:00,
2013-02-02 02:32:00,45.0,27.0,-100.00,East,81,2.0,4.0,50,0.00,,,-99.99,0.000000,,2013-02-02 10:32:00,
2013-02-02 02:42:00,45.0,27.0,-100.00,East,81,2.0,4.0,50,0.00,,,-99.99,0.000000,,2013-02-02 10:42:00,
2013-02-02 02:52:00,45.0,27.0,-100.00,East,81,2.0,4.0,50,0.00,,,-99.99,0.000000,,2013-02-02 10:52:00,
2013-02-02 03:01:00,45.0,27.0,-100.00,East,81,2.0,4.0,50,0.00,,,-99.99,0.000000,,2013-02-02 11:01:00,
2013-02-02 03:32:00,45.0,27.0,-100.00,ESE,114,2.0,4.0,49,0.00,,,-99.99,0.000000,,2013-02-02 11:32:00,
2013-02-02 03:42:00,45.0,27.0,-100.00,ESE,114,2.0,4.0,49,0.00,,,-99.99,0.000000,,2013-02-02 11:42:00,
2013-02-02 03:52:00,45.0,27.0,-100.00,ESE,114,2.0,4.0,49,0.00,,,-99.99,0.000000,,2013-02-02 11:52:00,
2013-02-02 04:01:00,45.0,27.0,-100.00,ESE,114,2.0,4.0,49,0.00,,,-99.99,0.000000,,2013-02-02 12:01:00,
2013-02-02 04:02:00,45.0,25.0,-100.00,SE,124,2.0,3.0,46,0.00,,,0.00,0.000000,,2013-02-02 12:02:00,
2013-02-02 04:32:00,45.0,25.0,-100.00,SE,124,2.0,3.0,46,0.00,,,0.00,0.000000,,2013-02-02 12:32:00,
2013-02-02 04:42:00,45.0,25.0,-100.00,SE,124,2.0,3.0,46,0.00,,,0.00,0.000000,,2013-02-02 12:42:00,
2013-02-02 04:52:00,45.0,25.0,-100.00,SE,124,2.0,3.0,46,0.00,,,0.00,0.000000,,2013-02-02 12:52:00,
2013-02-02 05:22:00,46.0,26.0,-100.00,SSE,163,2.0,4.0,45,0.00,,,0.00,0.000000,,2013-02-02 13:22:00,
2013-02-02 05:33:00,46.0,26.0,-100.00,SSE,163,2.0,4.0,45,0.00,,,0.00,0.000000,,2013-02-02 13:33:00,
2013-02-02 05:42:00,46.0,26.0,-100.00,SSE,163,2.0,4.0,45,0.00,,,0.00,0.000000,,2013-02-02 13:42:00,
2013-02-02 05:52:00,46.0,26.0,-100.00,SSE,163,2.0,4.0,45,0.00,,,0.00,0.000000,,2013-02-02 13:52:00,
2013-02-02 06:01:00,46.0,26.0,-100.00,SSE,163,2.0,4.0,45,0.00,,,0.00,0.000000,,2013-02-02 14:01:00,
2013-02-02 06:02:00,45.0,27.0,-100.00,South,183,2.0,5.0,48,0.00,,,0.00,0.000000,,2013-02-02 14:02:00,
2013-02-02 06:22:00,45.0,27.0,-100.00,South,183,2.0,5.0,48,0.00,,,0.00,0.000000,,2013-02-02 14:22:00,
2013-02-02 06:33:00,45.0,27.0,-100.00,South,183,2.0,5.0,48,0.00,,,0.00,0.000000,,2013-02-02 14:33:00,
2013-02-02 06:42:00,45.0,27.0,-100.00,South,183,2.0,5.0,48,0.00,,,0.00,0.000000,,2013-02-02 14:42:00,
2013-02-02 06:52:00,45.0,27.0,-100.00,South,183,2.0,5.0,48,0.00,,,0.00,0.000000,,2013-02-02 14:52:00,
2013-02-02 07:33:00,44.0,28.0,-100.00,SSE,165,3.0,4.0,54,0.00,,,0.00,2.000000,,2013-02-02 15:33:00,
2013-02-02 07:42:00,44.0,28.0,-100.00,SSE,165,3.0,4.0,54,0.00,,,0.00,2.000000,,2013-02-02 15:42:00,
2013-02-02 07:52:00,44.0,28.0,-100.00,SSE,165,3.0,4.0,54,0.00,,,0.00,2.000000,,2013-02-02 15:52:00,
2013-02-02 08:01:00,44.0,28.0,-100.00,SSE,165,3.0,4.0,54,0.00,,,0.00,2.000000,,2013-02-02 16:01:00,
2013-02-02 08:02:00,45.0,27.0,-100.00,SSE,147,2.0,4.0,49,0.00,,,0.00,56.000000,,2013-02-02 16:02:00,
2013-02-02 08:23:00,45.0,27.0,-100.00,SSE,147,2.0,4.0,49,0.00,,,0.00,56.000000,,2013-02-02 16:23:00,
2013-02-02 08:32:00,45.0,27.0,-100.00,SSE,147,2.0,4.0,49,0.00,,,0.00,56.000000,,2013-02-02 16:32:00,
2013-02-02 08:42:00,45.0,27.0,-100.00,SSE,147,2.0,4.0,49,0.00,,,0.00,56.000000,,2013-02-02 16:42:00,
2013-02-02 08:52:00,45.0,27.0,-100.00,SSE,147,2.0,4.0,49,0.00,,,0.00,56.000000,,2013-02-02 16:52:00,
2013-02-02 09:02:00,49.0,29.0,-100.00,SSW,208,3.0,4.0,45,0.00,,,0.00,174.000000,,2013-02-02 17:02:00,
2013-02-02 09:23:00,49.0,29.0,-100.00,SSW,208,3.0,4.0,45,0.00,,,0.00,174.000000,,2013-02-02 17:23:00,
2013-02-02 09:33:00,49.0,29.0,-100.00,SSW,208,3.0,4.0,45,0.00,,,0.00,174.000000,,2013-02-02 17:33:00,
2013-02-02 09:42:00,49.0,29.0,-100.00,SSW,208,3.0,4.0,45,0.00,,,0.00,174.000000,,2013-02-02 17:42:00,
2013-02-02 09:52:00,49.0,29.0,-100.00,SSW,208,3.0,4.0,45,0.00,,,0.00,174.000000,,2013-02-02 17:52:00,
2013-02-02 10:32:00,52.0,30.0,-100.00,SW,214,3.0,6.0,43,0.00,,,0.00,339.000000,,2013-02-02 18:32:00,
2013-02-02 10:42:00,52.0,30.0,-100.00,SW,214,3.0,6.0,43,0.00,,,0.00,339.000000,,2013-02-02 18:42:00,
2013-02-02 10:52:00,52.0,30.0,-100.00,SW,214,3.0,6.0,43,0.00,,,0.00,339.000000,,2013-02-02 18:52:00,
2013-02-02 11:01:00,52.0,30.0,-100.00,SW,214,3.0,6.0,43,0.00,,,0.00,339.000000,,2013-02-02 19:01:00,
2013-02-02 11:22:00,53.0,31.0,-100.00,SW,220,5.0,7.0,43,0.00,,,0.00,486.000000,,2013-02-02 19:22:00,
2013-02-02 11:32:00,53.0,31.0,-100.00,SW,220,5.0,7.0,43,0.00,,,0.00,486.000000,,2013-02-02 19:32:00,
2013-02-02 11:42:00,53.0,31.0,-100.00,SW,220,5.0,7.0,43,0.00,,,0.00,486.000000,,2013-02-02 19:42:00,
2013-02-02 11:52:00,53.0,31.0,-100.00,SW,220,5.0,7.0,43,0.00,,,0.00,486.000000,,2013-02-02 19:52:00,
2013-02-02 12:01:00,53.0,31.0,-100.00,SW,220,5.0,7.0,43,0.00,,,0.00,486.000000,,2013-02-02 20:01:00,
2013-02-02 12:32:00,55.0,33.0,-100.00,SW,218,4.0,6.0,43,0.00,,,0.00,501.000000,,2013-02-02 20:32:00,
2013-02-02 12:42:00,55.0,33.0,-100.00,SW,218,4.0,6.0,43,0.00,,,0.00,501.000000,,2013-02-02 20:42:00,
2013-02-02 12:52:00,55.0,33.0,-100.00,SW,218,4.0,6.0,43,0.00,,,0.00,501.000000,,2013-02-02 20:52:00,
2013-02-02 13:01:00,55.0,33.0,-100.00,SW,218,4.0,6.0,43,0.00,,,0.00,501.000000,,2013-02-02 21:01:00,
2013-02-02 13:32:00,55.0,32.0,-100.00,WNW,301,4.0,7.0,41,0.00,,,0.00,424.000000,,2013-02-02 21:32:00,
2013-02-02 13:42:00,55.0,32.0,-100.00,WNW,301,4.0,7.0,41,0.00,,,0.00,424.000000,,2013-02-02 21:42:00,
2013-02-02 13:52:00,55.0,32.0,-100.00,WNW,301,4.0,7.0,41,0.00,,,0.00,424.000000,,2013-02-02 21:52:00,
2013-02-02 14:01:00,55.0,32.0,-100.00,WNW,301,4.0,7.0,41,0.00,,,0.00,424.000000,,2013-02-02 22:01:00,
2013-02-02 14:32:00,57.0,31.0,-100.00,West,270,3.0,7.0,37,0.00,,,0.00,415.000000,,2013-02-02 22:32:00,
2013-02-02 14:42:00,57.0,31.0,-100.00,West,270,3.0,7.0,37,0.00,,,0.00,415.000000,,2013-02-02 22:42:00,
2013-02-02 14:52:00,57.0,31.0,-100.00,West,270,3.0,7.0,37,0.00,,,0.00,415.000000,,2013-02-02 22:52:00,
2013-02-02 15:01:00,57.0,31.0,-100.00,West,270,3.0,7.0,37,0.00,,,0.00,415.000000,,2013-02-02 23:01:00,
2013-02-02 15:32:00,55.0,33.0,-100.00,NW,309,4.0,7.0,44,0.00,,,0.00,421.000000,,2013-02-02 23:32:00,
2013-02-02 15:42:00,55.0,33.0,-100.00,NW,309,4.0,7.0,44,0.00,,,0.00,421.000000,,2013-02-02 23:42:00,
2013-02-02 15:52:00,55.0,33.0,-100.00,NW,309,4.0,7.0,44,0.00,,,0.00,421.000000,,2013-02-02 23:52:00,
2013-02-02 16:01:00,55.0,33.0,-100.00,NW,309,4.0,7.0,44,0.00,,,0.00,421.000000,,2013-02-03 00:01:00,
2013-02-02 16:22:00,53.0,34.0,-100.00,WSW,241,3.0,7.0,48,0.00,,,0.00,153.000000,,2013-02-03 00:22:00,
2013-02-02 16:32:00,53.0,34.0,-100.00,WSW,241,3.0,7.0,48,0.00,,,0.00,153.000000,,2013-02-03 00:32:00,
2013-02-02 16:42:00,53.0,34.0,-100.00,WSW,241,3.0,7.0,48,0.00,,,0.00,153.000000,,2013-02-03 00:42:00,
2013-02-02 16:52:00,53.0,34.0,-100.00,WSW,241,3.0,7.0,48,0.00,,,0.00,153.000000,,2013-02-03 00:52:00,
2013-02-02 17:01:00,53.0,34.0,-100.00,WSW,241,3.0,7.0,48,0.00,,,0.00,153.000000,,2013-02-03 01:01:00,
2013-02-02 17:32:00,51.0,33.0,-100.00,SSW,198,2.0,4.0,49,0.00,,,0.00,40.000000,,2013-02-03 01:32:00,
2013-02-02 17:42:00,51.0,33.0,-100.00,SSW,198,2.0,4.0,49,0.00,,,0.00,40.000000,,2013-02-03 01:42:00,
2013-02-02 17:52:00,51.0,33.0,-100.00,SSW,198,2.0,4.0,49,0.00,,,0.00,40.000000,,2013-02-03 01:52:00,
2013-02-02 18:01:00,51.0,33.0,-100.00,SSW,198,2.0,4.0,49,0.00,,,0.00,40.000000,,2013-02-03 02:01:00,
2013-02-02 18:32:00,49.0,32.0,-100.00,ESE,106,2.0,3.0,51,0.00,,,0.00,2.000000,,2013-02-03 02:32:00,
2013-02-02 18:42:00,49.0,32.0,-100.00,ESE,106,2.0,3.0,51,0.00,,,0.00,2.000000,,2013-02-03 02:42:00,
2013-02-02 18:52:00,49.0,32.0,-100.00,ESE,106,2.0,3.0,51,0.00,,,0.00,2.000000,,2013-02-03 02:52:00,
2013-02-02 19:01:00,49.0,32.0,-100.00,ESE,106,2.0,3.0,51,0.00,,,0.00,2.000000,,2013-02-03 03:01:00,
2013-02-02 19:32:00,48.0,29.0,-100.00,ESE,113,2.0,4.0,48,0.00,,,0.00,0.000000,,2013-02-03 03:32:00,
2013-02-02 19:42:00,48.0,29.0,-100.00,ESE,113,2.0,4.0,48,0.00,,,0.00,0.000000,,2013-02-03 03:42:00,
2013-02-02 19:52:00,48.0,29.0,-100.00,ESE,113,2.0,4.0,48,0.00,,,0.00,0.000000,,2013-02-03 03:52:00,
2013-02-02 20:01:00,48.0,29.0,-100.00,ESE,113,2.0,4.0,48,0.00,,,0.00,0.000000,,2013-02-03 04:01:00,
2013-02-02 20:02:00,48.0,34.0,-100.00,SE,125,2.0,4.0,58,0.00,,,0.00,0.000000,,2013-02-03 04:02:00,
2013-02-02 20:22:00,48.0,34.0,-100.00,SE,125,2.0,4.0,58,0.00,,,0.00,0.000000,,2013-02-03 04:22:00,
2013-02-02 20:32:00,48.0,34.0,-100.00,SE,125,2.0,4.0,58,0.00,,,0.00,0.000000,,2013-02-03 04:32:00,
2013-02-02 20:42:00,48.0,34.0,-100.00,SE,125,2.0,4.0,58,0.00,,,0.00,0.000000,,2013-02-03 04:42:00,
2013-02-02 20:52:00,48.0,34.0,-100.00,SE,125,2.0,4.0,58,0.00,,,0.00,0.000000,,2013-02-03 04:52:00,
2013-02-02 21:02:00,47.0,29.0,-100.00,East,95,2.0,4.0,50,0.00,,,-99.99,0.000000,,2013-02-03 05:02:00,
2013-02-02 21:32:00,47.0,29.0,-100.00,East,95,2.0,4.0,50,0.00,,,-99.99,0.000000,,2013-02-03 05:32:00,
2013-02-02 21:42:00,47.0,29.0,-100.00,East,95,2.0,4.0,50,0.00,,,-99.99,0.000000,,2013-02-03 05:42:00,
2013-02-02 21:52:00,47.0,29.0,-100.00,East,95,2.0,4.0,50,0.00,,,-99.99,0.000000,,2013-02-03 05:52:00,
2013-02-02 22:21:00,47.0,28.0,-100.00,East,97,3.0,4.0,48,0.00,,,0.00,0.000000,,2013-02-03 06:21:00,
2013-02-02 22:32:00,47.0,28.0,-100.00,East,97,3.0,4.0,48,0.00,,,0.00,0.000000,,2013-02-03 06:32:00,
2013-02-02 22:42:00,47.0,28.0,-100.00,East,97,3.0,4.0,48,0.00,,,0.00,0.000000,,2013-02-03 06:42:00,
2013-02-02 22:52:00,47.0,28.0,-100.00,East,97,3.0,4.0,48,0.00,,,0.00,0.000000,,2013-02-03 06:52:00,
2013-02-02 23:01:00,47.0,28.0,-100.00,East,97,3.0,4.0,48,0.00,,,0.00,0.000000,,2013-02-03 07:01:00,
2013-02-02 23:32:00,44.0,36.0,-100.00,SSE,152,2.0,4.0,74,0.00,,,0.00,0.000000,,2013-02-03 07:32:00,
2013-02-02 23:42:00,44.0,36.0,-100.00,SSE,152,2.0,4.0,74,0.00,,,0.00,0.000000,,2013-02-03 07:42:00,
2013-02-02 23:52:00,44.0,36.0,-100.00,SSE,152,2.0,4.0,74,0.00,,,0.00,0.000000,,2013-02-03 07:52:00,